Regional Weather Roundup
Issued by NWS Midland/Odessa, TX

Skip options and go directly to product.
Home | Oldest Version | Next Version | Current Version | All | Text Only | Save Text | Print | Product List | Glossary On

Skip product version selection by date and time.   
119
ASUS44 KMAF 150502
RWRMAF
MIDLAND AREA WEATHER ROUNDUP
NATIONAL WEATHER SERVICE MIDLAND TX
1200 AM CDT MON SEP 15 2014

...IN SOUTHWEST TEXAS AND SOUTHEAST NEW MEXICO...

CITY           SKY/WX    TMP DP  RH WIND       PRES   REMARKS
ALPINE         CLOUDY    62  59  90 S7        30.29S
ANDREWS        MOCLDY    63  62  97 S5        30.21S
ARTESIA        NOT AVBL
BIG SPRING     CLOUDY    68  65  91 CALM      30.21S
CARLSBAD       CLOUDY    64  64 100 S6        30.19S
DRYDEN           N/A     71  66  84 E6        30.17S
FORT STOCKTON  CLOUDY    65  62  90 SE10      30.20R
GUAD PASS      FOG       57  57 100 NE13      30.29R VSB 1/4
HOBBS          CLOUDY    63  63 100 S12       30.22S
MARFA          CLOUDY    61  59  94 SE7       30.27S
MIDLAND AIRPK  NOT AVBL
MIDLAND INTL   CLOUDY    65  63  93 SE5       30.20S
ODESSA         CLOUDY    65  62  90 SE7       30.21S
PECOS          CLOUDY    65  62  91 E10       30.17F
PRESIDIO       FAIR      69  60  72 NE10G18   30.14F
SEMINOLE       MOCLDY    63  61  94 S8        30.22S
SNYDER         CLOUDY    68  65  90 S5        30.19S
WINK           CLOUDY    66  63  90 SE12      30.17S
$$
...OTHER STATIONS IN TEXAS...

CITY           SKY/WX    TMP DP  RH WIND       PRES   REMARKS
ABILENE        CLOUDY    74  62  66 W3        30.17R
AMARILLO       MOCLDY    63  59  87 S18       30.17S
AUSTIN         MOCLDY    68  66  93 CALM      30.13F
BROWNSVILLE    MOCLDY    77  76  96 NW6       30.06S
CORPUS CHRISTI CLOUDY    74  69  85 NE8       30.09F
DALLAS FTW     MOCLDY    73  63  70 CALM      30.14R
DEL RIO        CLOUDY    71  67  87 W3        30.14R
EL PASO        MOCLDY    72  58  61 SE14      30.15R
HOUSTON INT    CLOUDY    72  70  93 CALM      30.11S
LUBBOCK        CLOUDY    63  61  93 S10       30.17F
SAN ANGELO     CLOUDY    72  63  73 E3        30.17S
SAN ANTONIO    MOCLDY    73  66  78 NE3       30.14F
WACO           CLOUDY    70  65  84 NE3       30.13F
WICHITA FALLS  NOT AVBL
$$
...OTHER LOCATIONS IN NEW MEXICO...

CITY           SKY/WX    TMP DP  RH WIND       PRES   REMARKS
ALAMAGORDO     CLEAR     66  57  72 CALM      30.18S
ALBUQUERQUE    PTCLDY    69  52  54 S7        30.22R
CANNON AFB     NOT AVBL
CLOVIS           N/A     61  57  88 SW15      30.23S
HOLLOMAN AFB   NOT AVBL
ROSWELL        CLOUDY    62  59  90 S9        30.21S
RUIDOSO        CLOUDY    55  55 100 CALM      30.34F
SANTA FE       PTCLDY    62  52  69 E5        30.27S
TRUTH OR CONSE CLOUDY    70  56  61 SE7       30.19S
TUCUMCARI      CLOUDY    65  59  81 SW8       30.16S
$$

USA.gov is the U.S. government's official web portal to all federal, state and local government web resources and services.